Location: Cassano d�Adda
(45.5333°N, 9.5167°E)
Time: 00:48:51
(UTC+00:00)

SL-16 R/B - Pass Details

Date: 08 December 2019
Orbit: 843 x 846 km, 71.0° (Epoch: 17 January)

Event Time Altitude Azimuth Distance (km) Brightness Sun altitude
Rises 16:28:20 0° 253° (WSW) 3,397 7.6 -8.5°
Reaches altitude 10° 16:31:31 10° 271° (W) 2,466 5.8 -9.0°
Maximum altitude 16:35:29 19° 316° (NW) 1,902 4.3 -9.7°
Drops below altitude 10° 16:39:29 10° 1° (N) 2,476 4.4 -10.3°
Sets 16:42:42 0° 19° (NNE) 3,416 5.0 -10.9°
Enters shadow 16:42:45 - 19° (NNE) 3,432 5.0 -10.9°
